Weather History for Middleton, WI

Change the Weather History Date:

Sunday, May 11, 2014

  Actual Average (KMSN) Record (KMSN)
Temperature  
Mean Temperature 64 °F 56 °F  
Max Temperature 77 °F 67 °F 85 °F (1991)
Min Temperature 52 °F 45 °F 29 °F (1990)
Degree Days  
Heating Degree Days 0 10  
Month to date heating degree days 123  
Since 1 July heating degree days 7130  
Cooling Degree Days 0 1  
Month to date cooling degree days 1  
Year to date cooling degree days 5  
Growing Degree Days 14 (Base 50)    
Moisture  
Dew Point 53 °F    
Average Humidity 65    
Maximum Humidity 91    
Minimum Humidity 47    
Precipitation  
Precipitation 0.29 in 0.11 in 1.60 in (1912)
Month to date precipitation 1.20  
Year to date precipitation 9.48  
Snow  
Snow 0.00 in 0.00 in 0.70 in (1966)
Month to date snowfall 0.1  
Since 1 July snowfall 50.8  
Snow Depth -    
Sea Level Pressure  
Sea Level Pressure 29.90 in    
Wind  
Wind Speed 5 mph (SSE)    
Max Wind Speed 15 mph    
Max Gust Speed 31 mph    
Visibility 10 miles    
Events      
T = Trace of Precipitation, MM = Missing Value Source: NWS Daily Summary

Daily Weather History Graph

Daily Weather History Graph

Search for Another Location

Airport:

Trip Planner

Search our weather history database for the weather conditions in past years. The results will help you decide how hot, cold, wet, or windy it might be!

Date:

Astronomy

May. 11, 2014 Rise Set
Actual Time 5:38 AM CDT 8:10 PM CDT
Civil Twilight 5:06 AM CDT 8:43 PM CDT
Nautical Twilight 4:26 AM CDT 9:23 PM CDT
Astronomical Twilight 3:41 AM CDT 10:09 PM CDT
Moon 5:01 PM CDT (5/11) 3:49 AM CDT (5/11)
Length of Visible Light 15h 36m
Length of Day
14h 31m
Waxing Gibbous, 89% of the Moon is Illuminated
May 11
Waxing Gibbous
May 14
Full
May 21
Last Quarter
May 28
New
Jun 5
First Quarter

Hourly Weather History & Observations

Time (CDT) Temp. Dew Point Humidity Pressure Visibility Wind Dir Wind Speed Gust Speed Precip Events Conditions
12:10 AM 62.4 °F 41.7 °F 47% 29.92 in 10.0 mi ESE 4.6 mph - N/A   Scattered Clouds
12:30 AM 61.3 °F 42.1 °F 49% 29.90 in 10.0 mi East 3.5 mph - N/A   Scattered Clouds
12:50 AM 60.1 °F 42.1 °F 51% 29.91 in 7.0 mi SE 4.6 mph - N/A   Scattered Clouds
1:10 AM 59.0 °F 42.8 °F 55% 29.91 in 10.0 mi ESE 4.6 mph - N/A   Scattered Clouds
1:30 AM 59.0 °F 41.9 °F 53% 29.91 in 10.0 mi SE 3.5 mph - N/A   Clear
1:50 AM 57.6 °F 41.9 °F 56% 29.91 in 10.0 mi SE 4.6 mph - N/A   Clear
2:10 AM 57.6 °F 42.1 °F 56% 29.91 in 10.0 mi SE 5.8 mph - N/A   Clear
2:30 AM 58.3 °F 42.1 °F 55% 29.91 in 10.0 mi SE 6.9 mph - N/A   Clear
2:50 AM 57.6 °F 42.1 °F 56% 29.91 in 10.0 mi SE 6.9 mph - N/A   Clear
3:10 AM 57.2 °F 42.6 °F 58% 29.90 in 10.0 mi ESE 6.9 mph - N/A   Scattered Clouds
3:30 AM 57.7 °F 41.7 °F 55% 29.90 in 10.0 mi East 4.6 mph - N/A   Scattered Clouds
3:50 AM 57.4 °F 41.2 °F 55% 29.91 in 10.0 mi ESE 4.6 mph - N/A   Clear
4:10 AM 54.1 °F 41.9 °F 63% 29.91 in 10.0 mi Calm Calm - N/A   Clear
4:30 AM 52.0 °F 41.2 °F 67% 29.91 in 10.0 mi East 4.6 mph - N/A   Clear
4:50 AM 52.5 °F 41.4 °F 66% 29.90 in 10.0 mi Calm Calm - N/A   Clear
5:10 AM 52.0 °F 41.5 °F 68% 29.91 in 10.0 mi Calm Calm - N/A   Clear
5:30 AM 52.2 °F 42.8 °F 70% 29.91 in 10.0 mi Calm Calm - N/A   Clear
5:50 AM 52.2 °F 42.1 °F 69% 29.90 in 10.0 mi Calm Calm - N/A   Clear
6:10 AM 52.5 °F 42.8 °F 70% 29.90 in 10.0 mi Calm Calm - N/A   Clear
6:50 AM 58.5 °F 46.4 °F 64% 29.90 in 10.0 mi SSE 3.5 mph - N/A   Clear
7:30 AM 63.5 °F 47.3 °F 56% 29.91 in 10.0 mi South 6.9 mph - N/A   Clear
7:50 AM 64.6 °F 48.9 °F 57% 29.92 in 10.0 mi South 9.2 mph - N/A   Clear
8:10 AM 65.5 °F 50.2 °F 58% 29.91 in 10.0 mi SSW 9.2 mph - N/A   Clear
8:30 AM 65.7 °F 50.7 °F 58% 29.92 in 10.0 mi South 11.5 mph - N/A   Clear
8:50 AM 66.6 °F 51.3 °F 58% 29.92 in 10.0 mi SSW 10.4 mph - N/A   Clear
9:10 AM 68.0 °F 52.5 °F 58% 29.92 in 10.0 mi South 10.4 mph - N/A   Clear
9:35 AM 69.8 °F 53.1 °F 55% 29.92 in 10.0 mi SW 8.1 mph - N/A   Clear
9:50 AM 70.3 °F 53.2 °F 55% 29.92 in 10.0 mi SSW 6.9 mph - N/A   Clear
10:10 AM 72.5 °F 54.1 °F 52% 29.91 in 10.0 mi SW 5.8 mph - N/A   Clear
10:30 AM 73.4 °F 54.3 °F 51% 29.91 in 10.0 mi SW 6.9 mph - N/A   Clear
10:50 AM 74.7 °F 55.4 °F 51% 29.91 in 10.0 mi West 8.1 mph - N/A   Clear
11:10 AM 75.6 °F 55.6 °F 50% 29.91 in 10.0 mi WSW 8.1 mph - N/A   Clear
11:30 AM 76.1 °F 55.2 °F 48% 29.92 in 10.0 mi SW 9.2 mph 16.1 mph N/A   Clear
11:50 AM 76.1 °F 56.1 °F 50% 29.91 in 10.0 mi SSW 9.2 mph - N/A   Clear
12:10 PM 76.8 °F 56.3 °F 49% 29.90 in 10.0 mi South 4.6 mph - N/A   Clear
12:30 PM 77.5 °F 57.0 °F 49% 29.90 in 10.0 mi WSW 4.6 mph - N/A   Clear
12:50 PM 77.0 °F 57.2 °F 50% 29.90 in 10.0 mi South 4.6 mph - N/A   Clear
1:10 PM 77.2 °F 57.6 °F 51% 29.91 in 10.0 mi SSW 8.1 mph - N/A   Clear
1:30 PM 77.2 °F 56.8 °F 49% 29.90 in 10.0 mi SW 5.8 mph - N/A   Clear
1:50 PM 76.6 °F 57.0 °F 51% 29.90 in 10.0 mi SW 8.1 mph - N/A   Scattered Clouds
2:10 PM 77.4 °F 58.6 °F 52% 29.90 in 10.0 mi SW 6.9 mph - N/A   Mostly Cloudy
2:30 PM 76.5 °F 57.9 °F 53% 29.90 in 10.0 mi SW 9.2 mph - N/A   Overcast
2:50 PM 75.7 °F 57.9 °F 54% 29.90 in 10.0 mi WSW 5.8 mph - N/A   Overcast
3:10 PM 75.2 °F 58.1 °F 55% 29.90 in 10.0 mi SW 4.6 mph - N/A   Overcast
3:30 PM 73.2 °F 59.5 °F 62% 29.90 in 10.0 mi West 5.8 mph - N/A   Overcast
3:50 PM 71.2 °F 61.0 °F 70% 29.90 in 10.0 mi West 4.6 mph - 0.01 in   Overcast
4:10 PM 66.4 °F 62.1 °F 86% 29.87 in 1.0 mi North 15.0 mph 31.1 mph 0.27 in   Overcast
4:30 PM 67.3 °F 62.1 °F 83% 29.89 in 10.0 mi Calm Calm - 0.28 in   Scattered Clouds
5:10 PM 68.2 °F 62.4 °F 82% 29.86 in 10.0 mi East 4.6 mph - N/A   Clear
5:30 PM 68.4 °F 61.2 °F 78% 29.86 in 10.0 mi East 3.5 mph - N/A   Clear
5:50 PM 68.5 °F 59.7 °F 73% 29.88 in 10.0 mi ESE 9.2 mph - N/A   Scattered Clouds
6:10 PM 69.1 °F 60.4 °F 74% 29.87 in 10.0 mi East 5.8 mph - N/A   Scattered Clouds
6:30 PM 68.4 °F 60.6 °F 76% 29.86 in 10.0 mi East 5.8 mph - N/A   Scattered Clouds
6:50 PM 68.7 °F 61.0 °F 76% 29.86 in 10.0 mi ENE 3.5 mph - N/A   Clear
7:10 PM 68.0 °F 61.3 °F 79% 29.86 in 10.0 mi Calm Calm - N/A   Scattered Clouds
7:50 PM 66.0 °F 61.9 °F 86% 29.86 in 10.0 mi NE 6.9 mph - N/A   Scattered Clouds
8:10 PM 65.3 °F 61.3 °F 87% 29.87 in 10.0 mi ENE 5.8 mph - N/A   Scattered Clouds
8:30 PM 65.7 °F 61.2 °F 85% 29.86 in 10.0 mi East 4.6 mph - N/A   Clear
8:50 PM 65.3 °F 60.1 °F 83% 29.86 in 10.0 mi East 6.9 mph - N/A   Clear
9:10 PM 65.3 °F 59.2 °F 81% 29.87 in 10.0 mi East 5.8 mph - N/A   Scattered Clouds
9:30 PM 65.1 °F 59.0 °F 81% 29.89 in 10.0 mi East 4.6 mph - N/A   Mostly Cloudy
9:50 PM 65.3 °F 59.4 °F 81% 29.88 in 10.0 mi East 6.9 mph - N/A   Scattered Clouds
10:10 PM 64.4 °F 60.3 °F 86% 29.88 in 10.0 mi East 5.8 mph - N/A   Clear
10:30 PM 64.8 °F 60.4 °F 86% 29.88 in 10.0 mi ESE 5.8 mph - N/A   Scattered Clouds
10:50 PM 64.4 °F 60.8 °F 88% 29.90 in 10.0 mi SE 5.8 mph - N/A   Scattered Clouds
11:10 PM 63.5 °F 60.8 °F 91% 29.88 in 10.0 mi ESE 5.8 mph - N/A   Mostly Cloudy
11:30 PM 64.0 °F 61.5 °F 91% 29.87 in 10.0 mi SE 5.8 mph - N/A   Mostly Cloudy
11:50 PM 64.4 °F 61.7 °F 91% 29.88 in 10.0 mi SE 5.8 mph - N/A   Mostly Cloudy